星链-30975 (STARLINK-30975 )

导读 | 星芒AI

STARLINK-30975 是 SpaceX Starlink 项目中的一颗低轨通信卫星,属于第三代 Starlink 卫星(也称为 v1.5 或 Block V)。该卫星于 2023 年发射,旨在为全球提供高速互联网服务。它运行在约 540 公里的轨道高度,具备改进的推进系统和通信能力,支持更广泛的覆盖和更低的延迟。作为 Starlink 卫星群的一部分,STARLINK-30975 有助于提升偏远地区的网络连接,并为军事和应急通信提供支持。

基本信息
目录编号:
58446
目录名称:
STARLINK-30975
国际标识:
2023-183K
轨道中心:
EARTH
卫星名称:
星链-30975
卫星全名:
星链-30975 (STARLINK-30975 )
卫星状态:
在轨 (已飞行752 天)
发射日期:
2023-11-28 UTC
国别 :
美国 (US)
星等 :
--
轨道信息
数据来源 国际轨道数据
星历时间: 2025-12-18T17:44:21+0800
1天前
查看轨道信息
半长轴: 6937.22km
偏心率: 0.000121
轨道倾角: 43.002°
近地点辐角 264.820°
升交点赤经 125.272°
平近点角 95.250°
近地点: 558.245km
远地点: 559.925km
周期: 95.838分钟
每日圈数: 15.02535
详细信息
固有亮度:
5
最大亮度:
0.3
卫星平台:
Starlink v2.0 mini
覆盖范围:
全球
运营商:
太空探索技术公司
运营商所在国:
美国
制造商(研发单位):
太空探索技术公司
制造商所在国:
美国
使用方式:
暂无
卫星简介
星链(Starlink)计划是由太空探索技术公司(SpaceX)提出的一个巨型低轨卫星互联网星座项目,计划在2019年至2024年间在太空搭建由约1.2万颗卫星组成的“星链”网络,其中1584颗将部署在地球上空550千米处的近地轨道,并从2020年开始工作。该卫星仍在工作。
2D轨道图
3D轨道图
轨道高度分析图
轨道倾角分析图
轨道综合分析图
查看轨道综合分析图